Location: Flynn Junction
(40.1314°N, 99.5162°W)
Time: 21:34:26
(UTC+00:00)

Cosmos 1655 Rocket - Pass Details

Date: 29 October 2020
Orbit: 971 x 1006 km, 82.9° (Epoch: 30 November)

Event Time Altitude Azimuth Distance (km) Brightness Sun altitude
Rises 12:28:44 0° 191° (S) 3,668 7.0 -7.5°
Reaches altitude 10° 12:31:14 10° 193° (SSW) 2,729 6.3 -7.0°
Maximum altitude 12:37:30 72° 278° (W) 1,037 4.0 -5.8°
Drops below altitude 10° 12:43:51 10° 3° (N) 2,771 6.3 -4.7°
Sets 12:46:25 0° 6° (N) 3,729 7.0 -4.2°
